Lid_Strength_Index
3 2 2 1 1 1 1 1 1 0 0 0 1 1 1 0 -0 -1 -1 -1 -1 -1 -1 -1 -1 -0 -0 -0 -0 0 1 1 0 1 1 1 0 0 -0 -1 -1 -1 -1
4 3 2 2 2 1 1 1 1 0 0 0 0 0 0 0 -0 -1 -1 -1 -1 -1 -1 -1 -0 -0 0 0 0 0 1 1 0 2 2 4 3 1 0 0 -0 -0 -1
4 3 3 2 2 2 1 1 1 0 0 -0 0 0 0 0 1 0 0 -0 -1 -1 -1 -1 -0 -0 -0 0 0 0 1 2 1 0 2 5 5 3 1 1 0 -0 0
4 3 3 2 2 2 1 1 0 0 0 -0 0 1 2 2 1 1 0 -0 -1 -1 -1 -1 -0 -0 -0 0 0 -0 0 1 2 1 1 1 1 4 5 1 0 0 0
3 3 3 2 2 1 1 1 0 0 -0 0 0 1 2 1 1 0 0 -0 -0 -1 -0 -1 -0 -0 -0 -0 0 0 0 1 1 2 2 2 2 2 3 5 2 1 0
4 3 2 2 2 1 1 1 1 1 0 0 0 1 1 1 1 1 1 1 0 -0 -1 -0 -1 -0 -0 -0 0 -0 0 0 1 1 1 2 3 3 3 4 3 3 1
4 4 3 3 2 2 2 1 1 1 0 0 0 0 1 1 1 1 1 1 1 1 0 -0 -0 0 -0 -0 -0 -0 0 0 1 1 1 1 1 1 2 2 3 3 2
4 4 3 3 3 2 2 1 1 1 1 1 1 0 0 0 0 0 0 1 1 0 -0 -0 -0 0 0 -0 -0 0 0 -0 0 1 1 1 1 1 1 2 3 4 3
4 4 3 3 3 2 2 1 1 1 1 1 0 0 0 0 0 0 -0 0 -0 -0 -0 -0 -0 0 0 -0 0 0 1 0 0 0 0 1 1 0 0 1 1 3 6
4 4 3 3 2 2 2 1 1 1 1 0 0 0 0 -0 -0 -0 0 0 -0 -0 -0 -0 -0 0 0 1 0 1 0 1 1 0 1 1 0 0 0 1 1 1 3
4 4 4 3 2 2 2 1 1 1 1 1 0 0 -0 -0 -0 -0 0 -0 -0 -0 -0 -0 -0 -0 0 -0 1 0 1 1 1 0 1 1 0 0 0 0 1 1 1
4 4 3 3 3 2 2 2 1 1 1 0 0 1 0 -0 -0 0 -0 -0 -0 -0 -0 -0 -0 0 0 -0 0 1 1 1 2 1 1 1 0 1 1 1 1 2 1
4 4 3 3 3 3 2 2 2 1 1 1 1 1 0 1 0 0 -0 -0 -0 -0 -0 -0 0 0 0 -0 0 0 1 1 1 1 1 1 1 1 1 1 1 1 1
5 4 4 3 3 3 2 2 2 1 1 1 1 1 1 0 0 -0 -0 -0 -0 -0 -0 -0 -0 -0 -0 -0 -0 0 0 0 1 1 1 1 1 1 1 1 2 1 1
5 4 4 4 3 3 2 2 2 1 1 1 1 1 0 0 -0 0 -0 -0 -0 -0 -0 -0 -0 -0 -0 0 0 -0 0 0 1 1 1 1 0 1 1 1 1 1 2
5 4 4 3 3 3 2 2 2 2 1 1 1 1 0 0 0 0 0 0 0 -0 -0 -0 -0 0 0 1 0 0 0 0 1 1 0 0 0 0 1 2 2 0 1
5 4 3 3 3 2 2 2 2 1 1 1 1 1 1 1 1 0 0 0 0 -0 0 0 0 0 0 1 0 0 0 1 0 1 1 1 0 0 0 1 3 2 2
4 3 3 3 2 2 2 1 1 1 1 1 1 1 1 1 1 1 1 0 0 0 0 0 0 0 0 1 1 0 -0 0 0 0 0 1 1 0 0 0 1 1 0
3 3 2 2 2 2 1 1 1 1 1 2 1 1 1 1 1 1 1 0 1 0 0 0 0 0 0 1 1 1 0 0 0 0 0 0 0 1 2 1 1 1 1
3 3 2 2 2 2 1 2 2 2 2 1 1 1 0 1 1 1 1 0 0 1 1 1 0 1 0 1 1 1 0 1 1 0 -0 1 0 3 4 1 1 2 1
3 2 2 2 2 1 1 2 2 2 1 1 1 1 1 0 0 0 0 0 1 1 1 1 0 0 0 0 2 3 0 1 1 1 1 0 3 5 6 6 1 1 1
3 3 3 3 2 1 1 2 2 1 1 2 2 2 2 2 2 1 1 0 1 1 1 1 1 1 -0 1 2 3 3 1 1 1 1 0 6 6 5 5 4 5 4
3 3 3 3 3 2 2 3 3 2 2 2 3 3 2 2 1 1 1 2 1 1 2 2 2 2 1 0 2 3 3 2 1 0 1 4 6 7 5 5 6 6 1
3 3 3 3 4 3 3 4 4 3 3 2 2 2 2 2 2 2 2 3 3 2 2 3 2 2 1 1 0 0 0 1 0 1 0 1 3 4 3 1 1 1 1
3 2 3 4 4 4 4 4 4 2 2 2 3 3 3 3 3 2 2 3 3 4 4 4 4 3 3 3 5 5 3 2 3 5 1 1 1 1 1 1 1 1 1
3 3 4 4 4 4 4 4 4 3 4 4 4 4 4 4 4 4 3 5 6 7 8 9 7 4 6 7 8 9 9 9 9 2 2 2 2 2 2 2 2 1 1